{"data":{"norad_id":65761,"epoch":"2026-05-24T22:18:42.674976Z","epoch_age_seconds":81262,"freshness":"FRESH","line1":"1 65761U 25216AD  26144.92966059  .00027618  00000+0  94086-3 0  9997","line2":"2 65761  53.1623 338.9479 0001005  77.0006 283.1107 15.30209074 38268","mean_motion":15.30209074,"eccentricity":0.0001005,"inclination_deg":53.1623,"raan_deg":338.9479,"arg_perigee_deg":77.0006,"mean_anomaly_deg":283.1107,"bstar":0.00094086,"rev_number":3826,"period_min":94.104787670342,"perigee_km":474.4992170647,"apogee_km":475.87673538492,"semimajor_km":6853.3249762248,"source":"CELESTRAK","updated_at":"2026-05-25T13:38:20.935367Z"}}